sat.trackr.live / text

‹ back to catalog

STARLINK-35463

NORAD 66463 · 2025-262H

PAYLOAD ACTIVE UNKNOWN

§ Identity

Operator
Country
US
Launch date
2025-11-15
Launch site
AFETR
Launch vehicle
Mass (kg)
RCS (m²)

Purposes: comms

External: N2YO · Heavens-Above · Gunter

§ Orbital elements

Epoch: 2026-09-19T02:10:55.880256Z

Period
94.27 min
Inclination
43.0022°
Eccentricity
0.0003093
Mean motion
15.27583043 rev/d
Perigee alt
480.9 km
Apogee alt
485.2 km
Semi-major
6,861.2 km
B*
4.1219e-4
RAAN
284.0292°
Arg perigee
288.3424°
Mean anomaly
71.7091°
Rev number
4,848

§ Raw data

STARLINK-354631 66463U 25262H   26262.09092454  .00011099  00000+0  41219-3 0  99922 66463  43.0022 284.0292 0003093 288.3424  71.7091 15.27583043 48488

JSON: /api/v1/satellites/66463 · /tle

For live sub-satellite position, see the globe view (requires WebGL).

§ Visibility from observer

Set your observer location to see the next 7 days of passes ≥ 10°. The values pass through the URL so the page stays shareable.

No JS? Fill the form by hand. The geolocation button needs JavaScript.